TJS-16

Last updated on Tue Sep 22 2026 00:03:16 GMT+0000 (Coordinated Universal Time)

1 63397U 25064A 26264.56712802 -.00000107 00000+0 00000+0 0 9993 2 63397 1.3391 80.6143 0001723 244.9331 39.7722 1.00273326 5355
UTC large
Height (km)
Speed (km/s)
/
Latitude / Longitude
Inclination (degrees)
Orbital Period (minutes)
Azimuth
Elevation
Range (km)
Doppler Factor

Next 0 passes for location: London (51.5072 / 0.1276)

No passes found over London.
TJS-16